Les Diablerets Engelberg, Switzerland 16 day weather forecast

Slopes altitude range 1050 m - 3030m

Number of lifts: 8 Pistes: 25km

In some cases the lift and piste totals shown are for the ski domain (e.g. Three Valleys) rather than individual resort (e.g. Courchevel)

Overview

The 16 day weather forecast is fully updated 4 times every day.

    • Mon 22 APR 2019
    • Mon 22
    • 8C 20C
    • Tue 23 APR 2019
    • Tue 23
    • 9C 16C
    • Wed 24 APR 2019
    • Wed 24
    • 9C 17C
    • Thu 25 APR 2019
    • Thu 25
    • 6C 18C
    • Fri 26 APR 2019
    • Fri 26
    • 2C 5C
    • Sat 27 APR 2019
    • Sat 27
    • 2C 10C
    • Sun 28 APR 2019
    • Sun 28
    • 6C 14C
    • Mon 29 APR 2019
    • Mon 29
    • 8C 16C
    • Tue 30 APR 2019
    • Tue 30
    • 5C 10C
    • Wed 01 MAY 2019
    • Wed 01
    • 5C 13C
    • Thu 02 MAY 2019
    • Thu 02
    • 2C 11C
    • Fri 03 MAY 2019
    • Fri 03
    • 1C 21C
    • Sat 04 MAY 2019
    • Sat 04
    • 5C 20C
    • Sun 05 MAY 2019
    • Sun 05
    • 6C 11C
    • Mon 06 MAY 2019
    • Mon 06
    • 6C 8C
    • Tue 07 MAY 2019
    • Tue 07
    • 1C 8C

Date:

Time Type 0°C level Temp Chill Snow Cloud Speed Gust Dir Press
3:00 3053m 6°C 6_5 0cm 89% 5mph 5mph 1013mB
6:00 2992m 6°C 6_5 0cm 93% 5mph 7mph 1011mB
9:00 3235m 8°C 8_3 0cm 100% 3mph 5mph 1008mB
12:00 3264m 20°C 20_2 0cm 99% 2mph 6mph 1005mB
15:00 3102m 20°C 20_4 0cm 86% 4mph 6mph 1003mB
18:00 3098m 20°C 20_2 0cm 88% 2mph 3mph 1002mB
21:00 3187m 9°C 9_5 0cm 92% 5mph 6mph 1003mB
0:00 2918m 9°C 9_6 0cm 97% 6mph 8mph 1002mB
3:00 2783m 8°C 8_5 0cm 100% 5mph 5mph 1001mB
6:00 2732m 7°C 7_4 0cm 100% 4mph 6mph 1000mB
9:00 2710m 9°C 9_3 0cm 100% 3mph 4mph 999mB
12:00 2757m 16°C 16_4 0cm 100% 4mph 4mph 999mB
15:00 2745m 16°C 16_3 0cm 98% 3mph 3mph 999mB
18:00 2787m 16°C 16_1 0cm 95% 1mph 2mph 1000mB
21:00 2773m 8°C 8_4 0cm 84% 4mph 5mph 1003mB
0:00 2916m 7°C 7_4 0cm 83% 4mph 5mph 1004mB
3:00 2904m 6°C 6_5 0cm 55% 5mph 5mph 1004mB
6:00 2988m 6°C 6_4 0cm 75% 4mph 5mph 1005mB
9:00 2874m 9°C 9_3 0cm 91% 3mph 5mph 1006mB
12:00 2543m 17°C 17_5 0cm 94% 5mph 6mph 1006mB
15:00 2358m 13°C 13_6 0cm 98% 6mph 10mph 1008mB
18:00 2764m 13°C 13_4 0cm 83% 4mph 6mph 1010mB
21:00 2880m 5°C 5_4 0cm 29% 4mph 5mph 1013mB
0:00 3175m 4°C 4_5 0cm 57% 5mph 5mph 1014mB
3:00 3179m 4°C 4_5 0cm 86% 5mph 6mph 1014mB
6:00 3093m 3°C 3_5 0cm 50% 5mph 7mph 1014mB
9:00 3097m 6°C 6_4 0cm 17% 4mph 8mph 1013mB
12:00 2704m 18°C 18_3 0cm 24% 3mph 9mph 1013mB
15:00 2747m 18°C 18_3 0cm 79% 3mph 7mph 1013mB
18:00 2530m 18°C 18_3 0cm 83% 3mph 4mph 1014mB
21:00 2462m 6°C 6_0 0cm 67% 0mph 1mph 1016mB
0:00 2159m 5°C 5_5 0cm 77% 5mph 7mph 1017mB
3:00 1442m 2°C 2_4 5cm 99% 4mph 8mph 1017mB
6:00 1486m 2°C 2_3 5cm 100% 3mph 4mph 1019mB
9:00 1518m 2°C 2_3 2cm 100% 3mph 5mph 1020mB
12:00 1586m 5°C 5_2 0cm 100% 2mph 4mph 1020mB
15:00 1789m 8°C 8_5 0cm 65% 5mph 8mph 1021mB
18:00 1662m 8°C 8_4 0cm 80% 4mph 8mph 1023mB
21:00 1597m 3°C 3_4 0cm 99% 4mph 7mph 1027mB
0:00 1536m 2°C 2_4 2cm 97% 4mph 7mph 1028mB
3:00 1496m 1°C 1_4 1cm 78% 4mph 5mph 1029mB
6:00 1508m -1°C -1_4 0cm 50% 4mph 6mph 1029mB
9:00 1816m 2°C 2_4 0cm 74% 4mph 7mph 1028mB
12:00 2035m 10°C 10_4 0cm 77% 4mph 7mph 1027mB
15:00 2204m 11°C 11_3 0cm 81% 3mph 6mph 1026mB
18:00 2342m 11°C 11_2 0cm 83% 2mph 3mph 1027mB
21:00 2473m 4°C 4_5 0cm 77% 5mph 6mph 1029mB
0:00 2465m 3°C 3_5 0cm 78% 5mph 6mph 1029mB
3:00 2451m 3°C 3_5 0cm 85% 5mph 6mph 1028mB
6:00 2580m 3°C 3_5 0cm 85% 5mph 8mph 1027mB
9:00 2629m 6°C 6_4 0cm 80% 4mph 7mph 1026mB
12:00 2724m 14°C 14_5 0cm 62% 5mph 6mph 1024mB
15:00 2832m 14°C 14_5 0cm 75% 5mph 9mph 1022mB
18:00 2798m 14°C 14_3 0cm 55% 3mph 4mph 1022mB
21:00 2666m 7°C 7_5 0cm 59% 5mph 6mph 1023mB
0:00 2717m 6°C 6_5 0cm 58% 5mph 6mph 1022mB
3:00 2765m 5°C 5_6 0cm 87% 6mph 7mph 1020mB
6:00 2762m 5°C 5_6 0cm 88% 6mph 11mph 1018mB
9:00 2740m 8°C 8_9 0cm 82% 9mph 19mph 1015mB
12:00 2725m 16°C 16_14 0cm 84% 14mph 27mph 1012mB
15:00 2589m 19°C 19_19 0cm 76% 19mph 34mph 1010mB
18:00 2580m 19°C 19_9 0cm 86% 9mph 27mph 1010mB
21:00 2381m 9°C 9_9 0cm 95% 9mph 28mph 1012mB
0:00 1936m 7°C 7_8 0cm 94% 8mph 26mph 1011mB
3:00 1583m 5°C 5_9 0cm 92% 9mph 29mph 1012mB
6:00 1347m 3°C 3_9 0cm 48% 9mph 24mph 1013mB
9:00 1475m 5°C 5_12 0cm 4% 12mph 19mph 1013mB
12:00 1601m 10°C 10_11 0cm 25% 11mph 17mph 1012mB
15:00 1654m 10°C 10_7 0cm 87% 7mph 13mph 1012mB
18:00 1660m 10°C 10_3 0cm 82% 3mph 4mph 1013mB
21:00 1628m 3°C 3_3 0cm 46% 3mph 3mph 1016mB
0:00 1559m 2°C 2_2 0cm 24% 2mph 3mph 1016mB
3:00 1496m 1°C 1_2 0cm 0% 2mph 2mph 1016mB
6:00 1420m 1°C 1_2 0cm 0% 2mph 2mph 1016mB
9:00 1484m 5°C 5_4 0cm 10% 4mph 5mph 1015mB
12:00 1748m 13°C 13_6 0cm 12% 6mph 7mph 1014mB
15:00 1816m 12°C 12_5 0cm 82% 5mph 7mph 1012mB
18:00 1814m 12°C 12_3 0cm 63% 3mph 4mph 1013mB
21:00 1773m 4°C 4_2 0cm 59% 2mph 2mph 1014mB
0:00 1743m 3°C 3_0 0cm 76% 0mph 0mph 1013mB
Afternoon 0.255208mm 2.9375 1896m 11°C 11_5 0cm 79% 5mph 7mph 1010mB
Morning 0.234375mm 2.8125 2142m 2°C 2_2 0cm 20% 2mph 3mph 1011mB
Afternoon 0mm 0 2476m 21°C 21_2 0cm 59% 2mph 8mph 1006mB
Morning 0mm 0 2645m 7°C 7_3 0cm 98% 3mph 4mph 1006mB
Afternoon 0mm 0 2746m 20°C 20_5 0cm 62% 5mph 8mph 1000mB
Morning 0.015625mm 0.0625 2931m 8°C 8_4 0cm 67% 4mph 5mph 1002mB
Afternoon 1.04688mm 2.375 2483m 11°C 11_4 0cm 86% 4mph 8mph 1000mB
Morning 1.65625mm 0.375 1954m 7°C 7_10 0cm 100% 10mph 23mph 1003mB
Afternoon 0.234375mm 0.375 1772m 8°C 8_13 0cm 100% 13mph 25mph 1007mB
Morning 0.520833mm 0.25 1203m 3°C 3_4 0cm 100% 4mph 9mph 1016mB
Afternoon 0.171875mm 1.125 1427m 8°C 8_5 9cm 80% 5mph 8mph 1018mB
Morning 0.291667mm 2.375 768m 0°C 0_5 19cm 85% 5mph 6mph 1024mB

16 day outlook at a glance

Forecast issued: 22/04/2019 08:24:29

Chat

Your comments and questions. In a resort? Let us know what it's like!


Characters left 250

For terms and conditions see Readers Comments on the Cookie and privacy policy page.